Precipitable_Water
0.44 0.42 0.40 0.40 0.38 0.38 0.36 0.36 0.34 0.32 0.32 0.32 0.32 0.32 0.32 0.34 0.34 0.36 0.36 0.36 0.36 0.36 0.36 0.36 0.38 0.36 0.36 0.36 0.38 0.38 0.40 0.38 0.40 0.42 0.42 0.42 0.42 0.44 0.44 0.44 0.44 0.46 0.46 0.42 0.42 0.42 0.42 0.40 0.38 0.38 0.38 0.38 0.38 0.40 0.42 0.42 0.40 0.40 0.42 0.40 0.40 0.40 0.40 0.42 0.44 0.44 0.44 0.42 0.40 0.40 0.40 0.40 0.40 0.40 0.42 0.42 0.42 0.42 0.40 0.40 0.38 0.36 0.36 0.36 0.36 0.36
0.38 0.38 0.34 0.36 0.34 0.34 0.34 0.32 0.32 0.32 0.32 0.32 0.32 0.32 0.32 0.32 0.34 0.34 0.34 0.36 0.36 0.36 0.36 0.36 0.36 0.36 0.36 0.36 0.36 0.36 0.36 0.38 0.38 0.40 0.40 0.42 0.42 0.42 0.42 0.42 0.42 0.42 0.42 0.40 0.38 0.38 0.38 0.38 0.38 0.38 0.40 0.40 0.40 0.42 0.42 0.42 0.42 0.42 0.42 0.40 0.42 0.44 0.44 0.46 0.44 0.42 0.42 0.40 0.40 0.38 0.38 0.40 0.40 0.40 0.42 0.40 0.40 0.40 0.36 0.36 0.36 0.36 0.36 0.36 0.36 0.36
0.32 0.32 0.30 0.32 0.32 0.30 0.30 0.30 0.30 0.32 0.32 0.32 0.32 0.32 0.32 0.32 0.32 0.34 0.36 0.36 0.36 0.36 0.36 0.36 0.36 0.36 0.36 0.36 0.38 0.38 0.38 0.40 0.40 0.40 0.42 0.42 0.42 0.42 0.42 0.42 0.42 0.40 0.40 0.38 0.38 0.38 0.38 0.38 0.38 0.40 0.40 0.42 0.42 0.42 0.44 0.44 0.44 0.42 0.42 0.42 0.44 0.46 0.48 0.46 0.44 0.42 0.42 0.40 0.38 0.38 0.38 0.40 0.40 0.40 0.38 0.38 0.38 0.36 0.36 0.36 0.36 0.38 0.36 0.36 0.36 0.36
0.30 0.28 0.28 0.28 0.28 0.28 0.28 0.28 0.30 0.30 0.32 0.32 0.32 0.34 0.34 0.34 0.34 0.34 0.36 0.36 0.36 0.36 0.36 0.38 0.38 0.38 0.40 0.40 0.40 0.40 0.40 0.44 0.44 0.44 0.44 0.44 0.44 0.44 0.44 0.42 0.40 0.40 0.38 0.38 0.36 0.38 0.38 0.38 0.40 0.40 0.42 0.42 0.42 0.42 0.42 0.44 0.44 0.44 0.46 0.46 0.48 0.48 0.46 0.46 0.44 0.40 0.40 0.40 0.38 0.38 0.40 0.40 0.40 0.40 0.38 0.36 0.36 0.36 0.38 0.38 0.38 0.38 0.38 0.38 0.38 0.38
0.28 0.28 0.28 0.28 0.28 0.28 0.28 0.28 0.28 0.30 0.30 0.32 0.32 0.32 0.34 0.34 0.36 0.36 0.38 0.38 0.36 0.38 0.38 0.40 0.40 0.42 0.44 0.44 0.44 0.46 0.46 0.48 0.48 0.46 0.46 0.44 0.44 0.42 0.42 0.40 0.38 0.38 0.38 0.36 0.36 0.36 0.38 0.38 0.40 0.40 0.40 0.40 0.40 0.40 0.42 0.42 0.44 0.44 0.46 0.48 0.48 0.48 0.46 0.44 0.42 0.40 0.40 0.38 0.40 0.40 0.40 0.40 0.38 0.38 0.38 0.38 0.38 0.38 0.40 0.38 0.38 0.38 0.38 0.38 0.38 0.38
0.26 0.28 0.28 0.28 0.28 0.28 0.28 0.30 0.30 0.30 0.30 0.30 0.32 0.34 0.34 0.36 0.38 0.38 0.38 0.40 0.40 0.40 0.42 0.44 0.44 0.44 0.48 0.48 0.48 0.48 0.50 0.48 0.48 0.46 0.46 0.42 0.40 0.38 0.38 0.36 0.34 0.34 0.34 0.36 0.36 0.36 0.38 0.40 0.40 0.40 0.40 0.40 0.40 0.40 0.42 0.42 0.44 0.46 0.46 0.48 0.48 0.46 0.44 0.42 0.40 0.40 0.40 0.40 0.40 0.40 0.40 0.38 0.38 0.36 0.38 0.38 0.40 0.40 0.38 0.38 0.38 0.36 0.36 0.38 0.38 0.36
0.26 0.28 0.30 0.30 0.28 0.28 0.30 0.32 0.34 0.34 0.32 0.32 0.34 0.38 0.38 0.38 0.40 0.40 0.42 0.42 0.42 0.42 0.44 0.46 0.46 0.46 0.46 0.48 0.48 0.48 0.48 0.46 0.44 0.42 0.42 0.38 0.36 0.36 0.36 0.34 0.34 0.34 0.34 0.36 0.38 0.38 0.40 0.42 0.42 0.42 0.42 0.42 0.42 0.42 0.42 0.42 0.44 0.44 0.44 0.46 0.46 0.44 0.42 0.40 0.40 0.40 0.40 0.40 0.40 0.40 0.38 0.38 0.38 0.38 0.38 0.40 0.40 0.38 0.38 0.36 0.36 0.36 0.36 0.36 0.36 0.36
0.28 0.28 0.30 0.30 0.30 0.30 0.32 0.34 0.36 0.38 0.38 0.36 0.36 0.38 0.38 0.40 0.40 0.40 0.42 0.42 0.42 0.42 0.42 0.42 0.44 0.44 0.42 0.44 0.44 0.46 0.46 0.42 0.40 0.38 0.38 0.36 0.34 0.34 0.34 0.34 0.34 0.34 0.36 0.38 0.40 0.40 0.42 0.44 0.44 0.44 0.44 0.44 0.44 0.44 0.42 0.42 0.42 0.42 0.42 0.42 0.42 0.42 0.40 0.40 0.40 0.40 0.40 0.40 0.38 0.38 0.38 0.40 0.40 0.40 0.40 0.38 0.38 0.38 0.36 0.36 0.36 0.36 0.34 0.34 0.34 0.34
0.28 0.28 0.30 0.32 0.32 0.32 0.32 0.32 0.36 0.40 0.40 0.40 0.38 0.36 0.36 0.36 0.36 0.36 0.38 0.38 0.40 0.38 0.36 0.36 0.38 0.40 0.38 0.40 0.40 0.40 0.40 0.38 0.36 0.36 0.36 0.34 0.34 0.34 0.34 0.34 0.36 0.36 0.38 0.38 0.40 0.42 0.42 0.44 0.44 0.44 0.44 0.44 0.44 0.44 0.42 0.42 0.42 0.42 0.40 0.40 0.40 0.40 0.40 0.40 0.38 0.38 0.38 0.38 0.38 0.38 0.38 0.40 0.40 0.40 0.40 0.38 0.36 0.36 0.34 0.34 0.34 0.34 0.34 0.34 0.34 0.34
0.28 0.28 0.28 0.32 0.32 0.32 0.30 0.30 0.32 0.36 0.38 0.38 0.36 0.34 0.34 0.34 0.30 0.28 0.30 0.32 0.32 0.34 0.32 0.32 0.34 0.34 0.32 0.34 0.36 0.36 0.36 0.34 0.34 0.34 0.34 0.34 0.34 0.34 0.34 0.36 0.38 0.38 0.38 0.40 0.40 0.42 0.42 0.44 0.44 0.44 0.44 0.42 0.42 0.42 0.42 0.42 0.42 0.40 0.40 0.40 0.40 0.40 0.38 0.38 0.38 0.38 0.38 0.38 0.38 0.40 0.40 0.40 0.38 0.38 0.38 0.36 0.36 0.36 0.34 0.34 0.34 0.34 0.34 0.34 0.34 0.34
0.26 0.26 0.26 0.26 0.28 0.30 0.30 0.28 0.28 0.30 0.32 0.32 0.30 0.28 0.30 0.30 0.28 0.26 0.24 0.26 0.28 0.30 0.30 0.32 0.32 0.30 0.30 0.30 0.32 0.34 0.34 0.32 0.32 0.34 0.34 0.36 0.38 0.38 0.38 0.38 0.38 0.38 0.38 0.40 0.42 0.42 0.44 0.44 0.44 0.44 0.42 0.42 0.42 0.42 0.42 0.40 0.40 0.40 0.40 0.40 0.40 0.38 0.38 0.38 0.38 0.38 0.40 0.40 0.40 0.40 0.40 0.40 0.38 0.38 0.38 0.36 0.34 0.34 0.34 0.34 0.34 0.34 0.34 0.34 0.34 0.34
0.22 0.24 0.22 0.22 0.24 0.24 0.26 0.24 0.24 0.26 0.26 0.26 0.24 0.24 0.26 0.28 0.30 0.28 0.26 0.26 0.26 0.28 0.30 0.30 0.30 0.32 0.32 0.32 0.32 0.34 0.34 0.32 0.32 0.34 0.36 0.36 0.38 0.38 0.38 0.36 0.36 0.36 0.38 0.38 0.40 0.44 0.46 0.46 0.46 0.44 0.44 0.42 0.40 0.40 0.40 0.40 0.40 0.40 0.40 0.40 0.40 0.40 0.40 0.40 0.40 0.40 0.40 0.40 0.40 0.40 0.40 0.38 0.38 0.38 0.36 0.36 0.34 0.34 0.34 0.34 0.34 0.34 0.34 0.32 0.34 0.34
0.22 0.22 0.20 0.20 0.20 0.22 0.22 0.22 0.22 0.24 0.24 0.26 0.24 0.24 0.26 0.28 0.30 0.30 0.28 0.28 0.28 0.28 0.30 0.30 0.30 0.30 0.30 0.34 0.34 0.34 0.34 0.32 0.34 0.34 0.36 0.36 0.36 0.36 0.36 0.34 0.34 0.34 0.34 0.36 0.36 0.40 0.44 0.44 0.44 0.44 0.42 0.40 0.40 0.40 0.40 0.40 0.42 0.40 0.40 0.40 0.40 0.40 0.40 0.40 0.40 0.40 0.40 0.40 0.40 0.40 0.40 0.38 0.38 0.36 0.36 0.34 0.34 0.34 0.34 0.34 0.34 0.34 0.32 0.32 0.34 0.36
0.20 0.20 0.20 0.20 0.20 0.22 0.22 0.24 0.24 0.24 0.24 0.26 0.26 0.26 0.26 0.28 0.28 0.28 0.28 0.28 0.28 0.30 0.30 0.28 0.28 0.28 0.28 0.32 0.32 0.34 0.34 0.32 0.32 0.34 0.34 0.32 0.34 0.34 0.34 0.32 0.32 0.34 0.34 0.34 0.34 0.36 0.38 0.40 0.40 0.40 0.40 0.40 0.40 0.40 0.40 0.40 0.40 0.40 0.40 0.40 0.40 0.40 0.38 0.38 0.40 0.40 0.40 0.40 0.40 0.40 0.40 0.38 0.38 0.36 0.36 0.34 0.34 0.34 0.34 0.34 0.34 0.34 0.34 0.34 0.34 0.36
0.20 0.20 0.18 0.18 0.20 0.22 0.24 0.24 0.24 0.24 0.26 0.26 0.28 0.28 0.28 0.28 0.28 0.28 0.28 0.26 0.28 0.28 0.28 0.26 0.26 0.26 0.26 0.28 0.30 0.32 0.32 0.30 0.30 0.30 0.30 0.30 0.30 0.32 0.32 0.32 0.32 0.34 0.34 0.34 0.36 0.36 0.38 0.38 0.38 0.38 0.38 0.40 0.40 0.40 0.40 0.40 0.40 0.40 0.40 0.40 0.40 0.40 0.38 0.38 0.40 0.40 0.38 0.38 0.38 0.38 0.38 0.38 0.36 0.36 0.34 0.34 0.34 0.34 0.34 0.34 0.32 0.34 0.34 0.34 0.34 0.36
0.20 0.18 0.18 0.18 0.20 0.22 0.24 0.24 0.26 0.26 0.26 0.26 0.28 0.28 0.28 0.28 0.28 0.28 0.28 0.26 0.26 0.26 0.26 0.24 0.24 0.24 0.24 0.26 0.28 0.28 0.30 0.28 0.28 0.28 0.28 0.28 0.28 0.30 0.32 0.32 0.32 0.32 0.34 0.34 0.36 0.36 0.38 0.38 0.38 0.38 0.38 0.40 0.40 0.40 0.40 0.40 0.40 0.40 0.40 0.40 0.40 0.40 0.38 0.38 0.38 0.38 0.38 0.38 0.38 0.38 0.38 0.36 0.36 0.34 0.34 0.34 0.34 0.34 0.34 0.32 0.34 0.34 0.36 0.36 0.38 0.38
0.18 0.18 0.18 0.18 0.20 0.22 0.22 0.24 0.24 0.24 0.24 0.26 0.26 0.26 0.28 0.28 0.28 0.28 0.26 0.26 0.26 0.26 0.22 0.22 0.22 0.20 0.20 0.22 0.24 0.26 0.28 0.28 0.28 0.28 0.28 0.28 0.30 0.32 0.34 0.34 0.34 0.32 0.34 0.36 0.36 0.36 0.38 0.38 0.38 0.38 0.40 0.42 0.42 0.42 0.42 0.40 0.40 0.40 0.40 0.40 0.40 0.38 0.38 0.38 0.38 0.38 0.36 0.38 0.36 0.36 0.36 0.36 0.34 0.34 0.34 0.34 0.34 0.32 0.32 0.34 0.34 0.34 0.36 0.36 0.38 0.38
0.18 0.18 0.18 0.18 0.20 0.20 0.20 0.22 0.22 0.24 0.24 0.24 0.24 0.24 0.26 0.26 0.26 0.24 0.24 0.24 0.24 0.22 0.22 0.22 0.20 0.20 0.22 0.22 0.24 0.28 0.30 0.32 0.32 0.30 0.30 0.30 0.30 0.32 0.36 0.36 0.36 0.34 0.34 0.36 0.38 0.38 0.38 0.40 0.40 0.40 0.42 0.44 0.44 0.44 0.44 0.42 0.42 0.40 0.40 0.40 0.40 0.38 0.38 0.38 0.38 0.36 0.36 0.36 0.36 0.36 0.34 0.34 0.34 0.34 0.34 0.34 0.32 0.32 0.32 0.34 0.34 0.34 0.36 0.36 0.36 0.36
0.16 0.18 0.18 0.18 0.18 0.18 0.20 0.20 0.20 0.22 0.22 0.22 0.22 0.22 0.22 0.24 0.24 0.24 0.22 0.22 0.22 0.22 0.24 0.22 0.22 0.22 0.24 0.24 0.28 0.30 0.34 0.34 0.32 0.32 0.30 0.30 0.32 0.34 0.38 0.38 0.36 0.36 0.36 0.36 0.36 0.38 0.38 0.40 0.40 0.42 0.44 0.44 0.44 0.44 0.42 0.42 0.42 0.42 0.40 0.40 0.40 0.38 0.36 0.36 0.36 0.36 0.36 0.34 0.34 0.34 0.34 0.34 0.34 0.34 0.34 0.32 0.32 0.32 0.32 0.34 0.34 0.34 0.34 0.34 0.34 0.36
0.18 0.18 0.18 0.18 0.18 0.20 0.20 0.20 0.22 0.22 0.22 0.24 0.24 0.24 0.22 0.24 0.24 0.24 0.24 0.24 0.24 0.24 0.26 0.24 0.24 0.24 0.26 0.26 0.30 0.34 0.36 0.32 0.30 0.30 0.28 0.30 0.32 0.34 0.38 0.34 0.34 0.34 0.34 0.34 0.34 0.34 0.36 0.34 0.36 0.38 0.42 0.42 0.42 0.42 0.42 0.42 0.42 0.40 0.40 0.40 0.38 0.38 0.36 0.36 0.36 0.36 0.34 0.34 0.34 0.34 0.34 0.34 0.34 0.32 0.32 0.32 0.32 0.32 0.32 0.34 0.34 0.34 0.34 0.34 0.36 0.36
0.18 0.20 0.20 0.22 0.20 0.20 0.22 0.24 0.24 0.26 0.26 0.28 0.28 0.26 0.24 0.24 0.26 0.26 0.26 0.26 0.26 0.26 0.26 0.26 0.26 0.26 0.28 0.28 0.30 0.32 0.36 0.32 0.30 0.26 0.26 0.26 0.28 0.34 0.36 0.32 0.30 0.30 0.30 0.30 0.30 0.32 0.32 0.34 0.36 0.38 0.40 0.40 0.40 0.40 0.42 0.40 0.40 0.40 0.40 0.38 0.38 0.38 0.36 0.36 0.36 0.34 0.34 0.34 0.34 0.34 0.34 0.34 0.34 0.32 0.32 0.32 0.32 0.32 0.32 0.34 0.34 0.34 0.34 0.36 0.36 0.36
0.20 0.22 0.24 0.24 0.24 0.24 0.26 0.28 0.28 0.30 0.30 0.30 0.28 0.28 0.26 0.26 0.26 0.26 0.26 0.26 0.26 0.26 0.26 0.26 0.26 0.28 0.28 0.30 0.32 0.34 0.36 0.30 0.28 0.24 0.24 0.22 0.22 0.26 0.30 0.30 0.28 0.28 0.26 0.26 0.28 0.30 0.32 0.34 0.34 0.36 0.38 0.38 0.38 0.38 0.40 0.38 0.38 0.38 0.38 0.38 0.36 0.36 0.36 0.34 0.34 0.34 0.34 0.34 0.34 0.34 0.34 0.34 0.32 0.32 0.32 0.32 0.32 0.32 0.34 0.34 0.34 0.34 0.34 0.34 0.36 0.36
0.24 0.24 0.26 0.26 0.26 0.28 0.30 0.32 0.32 0.32 0.32 0.32 0.30 0.28 0.28 0.28 0.28 0.28 0.28 0.26 0.26 0.26 0.26 0.26 0.26 0.26 0.28 0.30 0.32 0.34 0.30 0.28 0.26 0.24 0.22 0.20 0.20 0.24 0.28 0.26 0.26 0.24 0.24 0.26 0.26 0.28 0.30 0.30 0.32 0.34 0.36 0.36 0.36 0.36 0.36 0.36 0.36 0.36 0.38 0.36 0.34 0.34 0.34 0.34 0.34 0.34 0.32 0.34 0.34 0.34 0.32 0.32 0.32 0.32 0.32 0.32 0.34 0.34 0.34 0.34 0.34 0.34 0.34 0.36 0.36 0.36
0.28 0.28 0.30 0.30 0.30 0.32 0.34 0.34 0.34 0.34 0.34 0.32 0.30 0.30 0.30 0.30 0.28 0.28 0.28 0.26 0.26 0.24 0.24 0.24 0.24 0.24 0.22 0.24 0.28 0.30 0.26 0.28 0.26 0.24 0.22 0.20 0.20 0.22 0.26 0.24 0.22 0.22 0.24 0.24 0.26 0.28 0.28 0.28 0.30 0.32 0.34 0.32 0.32 0.34 0.34 0.34 0.34 0.34 0.34 0.34 0.32 0.32 0.32 0.32 0.32 0.32 0.32 0.32 0.34 0.34 0.34 0.34 0.34 0.34 0.34 0.34 0.34 0.34 0.34 0.34 0.34 0.34 0.34 0.36 0.36 0.36
0.30 0.32 0.32 0.34 0.34 0.34 0.34 0.34 0.34 0.34 0.34 0.32 0.30 0.28 0.28 0.28 0.28 0.26 0.26 0.26 0.24 0.22 0.20 0.20 0.20 0.20 0.18 0.20 0.24 0.26 0.24 0.26 0.24 0.22 0.20 0.18 0.18 0.18 0.20 0.22 0.22 0.20 0.20 0.22 0.24 0.26 0.26 0.26 0.28 0.28 0.30 0.30 0.30 0.32 0.32 0.30 0.30 0.32 0.32 0.32 0.30 0.32 0.32 0.32 0.32 0.32 0.32 0.32 0.34 0.34 0.34 0.34 0.34 0.34 0.34 0.34 0.34 0.34 0.34 0.34 0.34 0.34 0.34 0.36 0.36 0.36
0.32 0.34 0.34 0.34 0.34 0.32 0.32 0.32 0.32 0.32 0.32 0.32 0.30 0.28 0.26 0.26 0.24 0.22 0.22 0.22 0.20 0.20 0.18 0.16 0.16 0.16 0.16 0.18 0.20 0.22 0.22 0.24 0.22 0.20 0.20 0.18 0.16 0.18 0.20 0.20 0.20 0.20 0.20 0.20 0.22 0.24 0.24 0.24 0.24 0.26 0.26 0.26 0.26 0.28 0.28 0.28 0.28 0.28 0.30 0.30 0.30 0.30 0.30 0.30 0.30 0.32 0.32 0.32 0.32 0.32 0.32 0.34 0.34 0.34 0.34 0.34 0.34 0.34 0.34 0.34 0.34 0.34 0.36 0.36 0.36 0.36
0.32 0.32 0.32 0.32 0.32 0.30 0.30 0.30 0.30 0.32 0.32 0.30 0.30 0.28 0.26 0.24 0.22 0.18 0.18 0.20 0.18 0.18 0.18 0.16 0.16 0.16 0.16 0.16 0.16 0.18 0.20 0.20 0.22 0.20 0.20 0.18 0.18 0.16 0.18 0.20 0.20 0.20 0.18 0.20 0.20 0.22 0.22 0.22 0.22 0.24 0.24 0.24 0.24 0.26 0.26 0.28 0.28 0.30 0.30 0.30 0.32 0.32 0.30 0.30 0.30 0.32 0.32 0.32 0.32 0.32 0.32 0.32 0.34 0.34 0.34 0.34 0.34 0.32 0.34 0.34 0.34 0.36 0.36 0.36 0.36 0.34
0.30 0.32 0.30 0.30 0.30 0.30 0.30 0.30 0.30 0.30 0.30 0.28 0.28 0.28 0.26 0.24 0.20 0.18 0.18 0.18 0.18 0.18 0.16 0.16 0.16 0.14 0.16 0.16 0.16 0.18 0.18 0.20 0.20 0.22 0.22 0.20 0.18 0.18 0.18 0.20 0.20 0.20 0.18 0.18 0.18 0.20 0.22 0.20 0.22 0.22 0.22 0.24 0.24 0.24 0.26 0.28 0.30 0.30 0.30 0.30 0.30 0.30 0.30 0.30 0.30 0.30 0.32 0.32 0.32 0.32 0.32 0.32 0.32 0.32 0.32 0.32 0.32 0.34 0.34 0.34 0.36 0.36 0.36 0.34 0.34 0.34
0.30 0.30 0.30 0.30 0.30 0.28 0.28 0.28 0.28 0.28 0.28 0.26 0.26 0.26 0.26 0.24 0.22 0.20 0.20 0.20 0.20 0.18 0.16 0.16 0.16 0.16 0.16 0.16 0.16 0.18 0.18 0.20 0.22 0.22 0.22 0.20 0.18 0.18 0.18 0.20 0.20 0.20 0.20 0.18 0.18 0.18 0.18 0.20 0.20 0.22 0.22 0.22 0.24 0.24 0.26 0.28 0.28 0.30 0.30 0.30 0.30 0.30 0.30 0.30 0.30 0.30 0.30 0.32 0.32 0.32 0.32 0.32 0.32 0.32 0.32 0.32 0.32 0.34 0.34 0.34 0.36 0.36 0.36 0.34 0.34 0.32
0.28 0.28 0.28 0.28 0.28 0.28 0.28 0.26 0.26 0.26 0.26 0.24 0.24 0.24 0.24 0.22 0.22 0.22 0.20 0.20 0.20 0.20 0.18 0.18 0.18 0.18 0.18 0.16 0.16 0.16 0.16 0.18 0.22 0.24 0.24 0.20 0.20 0.18 0.20 0.20 0.20 0.20 0.20 0.20 0.18 0.18 0.18 0.20 0.20 0.22 0.22 0.24 0.24 0.24 0.26 0.28 0.28 0.28 0.30 0.28 0.28 0.30 0.30 0.30 0.30 0.30 0.30 0.30 0.32 0.32 0.30 0.30 0.30 0.32 0.32 0.32 0.34 0.34 0.34 0.34 0.36 0.36 0.34 0.34 0.34 0.32
0.26 0.26 0.26 0.28 0.26 0.26 0.26 0.26 0.26 0.24 0.22 0.22 0.22 0.22 0.22 0.22 0.22 0.22 0.22 0.22 0.22 0.20 0.18 0.18 0.18 0.18 0.18 0.18 0.16 0.16 0.16 0.18 0.22 0.24 0.26 0.22 0.20 0.20 0.20 0.20 0.20 0.22 0.22 0.22 0.20 0.18 0.16 0.18 0.20 0.22 0.22 0.24 0.24 0.26 0.26 0.28 0.28 0.28 0.28 0.28 0.28 0.28 0.30 0.30 0.30 0.30 0.30 0.30 0.30 0.30 0.30 0.30 0.32 0.32 0.34 0.34 0.34 0.34 0.34 0.34 0.34 0.36 0.34 0.34 0.32 0.32
0.26 0.26 0.26 0.26 0.26 0.26 0.26 0.24 0.24 0.24 0.22 0.22 0.20 0.20 0.22 0.20 0.22 0.22 0.22 0.22 0.22 0.22 0.20 0.20 0.18 0.18 0.18 0.18 0.16 0.16 0.18 0.20 0.24 0.26 0.26 0.24 0.22 0.22 0.22 0.22 0.22 0.22 0.24 0.24 0.22 0.20 0.16 0.18 0.20 0.22 0.22 0.24 0.24 0.26 0.26 0.28 0.28 0.28 0.28 0.28 0.28 0.28 0.30 0.30 0.30 0.30 0.30 0.30 0.30 0.30 0.30 0.32 0.32 0.32 0.32 0.34 0.34 0.34 0.34 0.34 0.34 0.34 0.34 0.32 0.32 0.32
0.26 0.26 0.26 0.26 0.24 0.24 0.24 0.24 0.22 0.22 0.20 0.20 0.20 0.20 0.20 0.20 0.20 0.22 0.22 0.22 0.22 0.22 0.22 0.20 0.20 0.20 0.18 0.18 0.18 0.18 0.20 0.22 0.24 0.26 0.28 0.26 0.24 0.22 0.22 0.22 0.22 0.22 0.24 0.24 0.22 0.22 0.20 0.20 0.22 0.22 0.22 0.24 0.24 0.26 0.26 0.28 0.28 0.28 0.28 0.28 0.28 0.28 0.28 0.30 0.30 0.30 0.30 0.30 0.30 0.30 0.30 0.32 0.32 0.32 0.32 0.32 0.34 0.34 0.34 0.34 0.34 0.34 0.34 0.32 0.32 0.32
0.24 0.24 0.24 0.24 0.24 0.22 0.22 0.22 0.22 0.20 0.20 0.20 0.20 0.20 0.20 0.20 0.20 0.20 0.22 0.22 0.22 0.22 0.22 0.22 0.20 0.20 0.20 0.18 0.18 0.20 0.20 0.22 0.24 0.26 0.28 0.26 0.26 0.24 0.24 0.24 0.24 0.22 0.24 0.22 0.22 0.22 0.22 0.22 0.22 0.22 0.22 0.24 0.24 0.26 0.26 0.28 0.28 0.28 0.28 0.28 0.28 0.28 0.28 0.30 0.30 0.30 0.30 0.30 0.30 0.30 0.30 0.32 0.32 0.32 0.32 0.32 0.32 0.34 0.34 0.34 0.34 0.34 0.34 0.32 0.32 0.32
0.22 0.22 0.22 0.22 0.22 0.22 0.20 0.20 0.20 0.20 0.18 0.18 0.18 0.18 0.20 0.20 0.20 0.20 0.20 0.22 0.22 0.22 0.22 0.22 0.22 0.20 0.20 0.20 0.20 0.20 0.22 0.24 0.26 0.28 0.28 0.28 0.26 0.24 0.24 0.24 0.24 0.24 0.22 0.22 0.22 0.22 0.22 0.22 0.22 0.22 0.22 0.22 0.24 0.24 0.26 0.26 0.28 0.28 0.28 0.30 0.30 0.30 0.30 0.30 0.30 0.30 0.30 0.30 0.30 0.30 0.30 0.30 0.32 0.32 0.32 0.32 0.32 0.32 0.32 0.34 0.34 0.34 0.34 0.34 0.34 0.36
0.22 0.22 0.22 0.22 0.22 0.20 0.20 0.20 0.20 0.18 0.18 0.18 0.18 0.18 0.18 0.20 0.20 0.20 0.20 0.20 0.22 0.22 0.22 0.22 0.22 0.22 0.24 0.22 0.22 0.22 0.24 0.26 0.26 0.28 0.28 0.28 0.26 0.24 0.24 0.24 0.24 0.24 0.22 0.22 0.22 0.22 0.22 0.22 0.22 0.22 0.22 0.22 0.22 0.22 0.24 0.26 0.26 0.28 0.28 0.28 0.30 0.30 0.30 0.30 0.30 0.30 0.30 0.30 0.30 0.30 0.30 0.30 0.30 0.30 0.32 0.32 0.32 0.32 0.32 0.32 0.34 0.34 0.34 0.36 0.36 0.38
0.20 0.20 0.22 0.20 0.20 0.20 0.20 0.18 0.18 0.18 0.18 0.18 0.18 0.18 0.18 0.20 0.20 0.20 0.20 0.20 0.22 0.22 0.22 0.22 0.22 0.24 0.24 0.24 0.24 0.24 0.26 0.26 0.26 0.28 0.28 0.28 0.28 0.26 0.26 0.26 0.26 0.26 0.24 0.24 0.24 0.22 0.22 0.22 0.22 0.22 0.22 0.22 0.22 0.22 0.24 0.26 0.26 0.26 0.26 0.28 0.30 0.30 0.30 0.30 0.30 0.30 0.30 0.28 0.28 0.28 0.30 0.30 0.30 0.30 0.30 0.32 0.32 0.32 0.32 0.32 0.34 0.34 0.36 0.36 0.36 0.38
0.20 0.20 0.20 0.20 0.20 0.20 0.18 0.18 0.18 0.18 0.18 0.18 0.18 0.18 0.20 0.20 0.20 0.20 0.20 0.20 0.22 0.22 0.22 0.22 0.22 0.24 0.24 0.24 0.24 0.24 0.24 0.26 0.26 0.26 0.28 0.28 0.28 0.28 0.26 0.26 0.26 0.26 0.26 0.26 0.24 0.24 0.22 0.22 0.20 0.20 0.20 0.22 0.22 0.24 0.24 0.26 0.26 0.26 0.28 0.28 0.30 0.30 0.30 0.30 0.30 0.30 0.28 0.28 0.28 0.28 0.28 0.30 0.30 0.30 0.30 0.30 0.32 0.32 0.32 0.32 0.34 0.34 0.36 0.36 0.36 0.38
0.20 0.20 0.20 0.20 0.20 0.20 0.18 0.18 0.18 0.20 0.20 0.20 0.20 0.20 0.20 0.20 0.20 0.20 0.20 0.20 0.22 0.22 0.22 0.22 0.22 0.22 0.24 0.24 0.24 0.24 0.24 0.26 0.26 0.26 0.28 0.28 0.28 0.26 0.26 0.24 0.26 0.26 0.26 0.26 0.26 0.24 0.22 0.22 0.20 0.20 0.22 0.22 0.22 0.24 0.26 0.26 0.26 0.26 0.26 0.28 0.28 0.26 0.28 0.28 0.28 0.28 0.28 0.28 0.28 0.28 0.28 0.30 0.30 0.30 0.30 0.30 0.32 0.32 0.32 0.32 0.34 0.34 0.36 0.36 0.36 0.38
0.20 0.20 0.20 0.20 0.20 0.20 0.20 0.20 0.20 0.20 0.20 0.20 0.20 0.20 0.20 0.20 0.20 0.20 0.20 0.20 0.20 0.22 0.22 0.22 0.22 0.22 0.22 0.24 0.24 0.24 0.24 0.24 0.26 0.26 0.28 0.26 0.26 0.26 0.26 0.26 0.24 0.24 0.26 0.26 0.26 0.26 0.24 0.24 0.24 0.24 0.24 0.24 0.24 0.24 0.26 0.26 0.26 0.26 0.26 0.26 0.24 0.24 0.26 0.28 0.28 0.28 0.28 0.28 0.28 0.28 0.28 0.30 0.30 0.30 0.30 0.32 0.32 0.32 0.34 0.34 0.34 0.34 0.36 0.36 0.36 0.36
0.20 0.20 0.20 0.20 0.20 0.20 0.20 0.20 0.20 0.20 0.20 0.20 0.20 0.20 0.20 0.20 0.20 0.20 0.20 0.20 0.20 0.20 0.22 0.22 0.22 0.22 0.22 0.22 0.24 0.24 0.24 0.26 0.26 0.26 0.26 0.26 0.26 0.26 0.26 0.26 0.26 0.26 0.26 0.26 0.26 0.26 0.26 0.24 0.24 0.26 0.26 0.26 0.26 0.26 0.26 0.26 0.26 0.26 0.24 0.24 0.24 0.24 0.26 0.26 0.28 0.28 0.28 0.28 0.28 0.30 0.30 0.30 0.30 0.30 0.30 0.32 0.32 0.34 0.34 0.34 0.34 0.36 0.36 0.36 0.36 0.36
0.20 0.20 0.20 0.20 0.22 0.22 0.22 0.22 0.22 0.22 0.20 0.20 0.20 0.20 0.20 0.20 0.20 0.20 0.20 0.20 0.20 0.20 0.22 0.22 0.22 0.20 0.20 0.22 0.22 0.24 0.24 0.26 0.26 0.26 0.26 0.26 0.26 0.26 0.26 0.26 0.26 0.26 0.26 0.26 0.26 0.26 0.26 0.26 0.26 0.26 0.26 0.26 0.26 0.26 0.24 0.24 0.24 0.24 0.24 0.24 0.24 0.24 0.24 0.24 0.26 0.26 0.28 0.28 0.30 0.30 0.30 0.30 0.30 0.32 0.32 0.34 0.34 0.34 0.36 0.36 0.36 0.36 0.36 0.36 0.38 0.38
0.20 0.20 0.20 0.22 0.22 0.22 0.22 0.22 0.22 0.22 0.20 0.20 0.20 0.20 0.20 0.20 0.20 0.20 0.20 0.20 0.20 0.20 0.20 0.20 0.20 0.20 0.20 0.20 0.20 0.22 0.22 0.24 0.24 0.26 0.26 0.26 0.26 0.26 0.26 0.26 0.26 0.28 0.26 0.26 0.26 0.26 0.26 0.26 0.26 0.26 0.28 0.28 0.26 0.26 0.24 0.24 0.24 0.24 0.24 0.24 0.22 0.22 0.20 0.22 0.24 0.26 0.28 0.28 0.30 0.30 0.30 0.32 0.32 0.32 0.32 0.34 0.34 0.34 0.36 0.36 0.36 0.38 0.38 0.38 0.38 0.38
0.20 0.20 0.22 0.22 0.22 0.22 0.22 0.22 0.22 0.22 0.20 0.20 0.20 0.20 0.20 0.20 0.20 0.20 0.20 0.20 0.20 0.20 0.20 0.20 0.20 0.20 0.20 0.20 0.20 0.20 0.22 0.22 0.24 0.24 0.24 0.26 0.26 0.26 0.26 0.26 0.28 0.28 0.28 0.26 0.26 0.26 0.26 0.26 0.26 0.26 0.28 0.28 0.26 0.24 0.24 0.24 0.22 0.22 0.22 0.22 0.22 0.22 0.22 0.22 0.22 0.26 0.26 0.28 0.30 0.30 0.32 0.32 0.32 0.32 0.34 0.34 0.34 0.36 0.36 0.36 0.36 0.38 0.38 0.40 0.40 0.40
0.22 0.22 0.22 0.22 0.22 0.22 0.22 0.22 0.22 0.22 0.20 0.20 0.20 0.20 0.20 0.20 0.20 0.20 0.20 0.20 0.20 0.20 0.22 0.20 0.20 0.20 0.18 0.18 0.20 0.20 0.20 0.22 0.22 0.24 0.24 0.26 0.26 0.26 0.26 0.28 0.28 0.28 0.28 0.26 0.26 0.26 0.24 0.24 0.26 0.26 0.26 0.28 0.26 0.26 0.24 0.22 0.22 0.20 0.20 0.22 0.22 0.22 0.22 0.24 0.24 0.26 0.26 0.28 0.30 0.30 0.32 0.32 0.32 0.32 0.34 0.34 0.34 0.34 0.36 0.36 0.36 0.36 0.38 0.38 0.40 0.40
0.22 0.22 0.22 0.22 0.22 0.22 0.22 0.22 0.22 0.22 0.20 0.20 0.20 0.20 0.20 0.20 0.20 0.20 0.20 0.20 0.20 0.20 0.22 0.20 0.20 0.18 0.18 0.18 0.20 0.20 0.20 0.20 0.22 0.22 0.22 0.24 0.24 0.26 0.26 0.28 0.28 0.28 0.28 0.26 0.28 0.26 0.26 0.26 0.26 0.26 0.26 0.26 0.24 0.24 0.22 0.22 0.20 0.20 0.20 0.22 0.22 0.22 0.22 0.24 0.24 0.26 0.26 0.28 0.30 0.30 0.30 0.32 0.32 0.32 0.32 0.32 0.34 0.34 0.36 0.36 0.36 0.38 0.38 0.38 0.40 0.40
0.20 0.20 0.22 0.22 0.22 0.22 0.22 0.22 0.22 0.20 0.20 0.20 0.20 0.20 0.20 0.20 0.20 0.20 0.20 0.20 0.20 0.22 0.22 0.20 0.20 0.18 0.18 0.18 0.18 0.20 0.20 0.20 0.20 0.22 0.22 0.24 0.26 0.26 0.26 0.26 0.28 0.28 0.26 0.26 0.26 0.26 0.26 0.26 0.26 0.26 0.26 0.24 0.22 0.22 0.22 0.22 0.20 0.20 0.20 0.20 0.22 0.22 0.22 0.22 0.24 0.26 0.26 0.28 0.30 0.30 0.32 0.32 0.32 0.32 0.32 0.32 0.34 0.34 0.36 0.36 0.38 0.38 0.38 0.38 0.38 0.38
0.20 0.20 0.20 0.20 0.20 0.20 0.20 0.22 0.20 0.20 0.20 0.20 0.20 0.20 0.20 0.20 0.20 0.20 0.20 0.20 0.22 0.22 0.20 0.20 0.20 0.18 0.18 0.20 0.20 0.20 0.20 0.20 0.20 0.22 0.22 0.24 0.26 0.26 0.26 0.26 0.26 0.26 0.26 0.26 0.26 0.26 0.26 0.26 0.26 0.28 0.28 0.26 0.22 0.20 0.20 0.20 0.20 0.20 0.22 0.22 0.22 0.22 0.22 0.22 0.24 0.26 0.28 0.28 0.30 0.32 0.32 0.32 0.32 0.32 0.32 0.32 0.32 0.32 0.34 0.34 0.36 0.38 0.38 0.38 0.38 0.38
0.20 0.20 0.20 0.20 0.20 0.20 0.20 0.20 0.20 0.20 0.20 0.20 0.20 0.20 0.20 0.20 0.20 0.20 0.20 0.20 0.22 0.20 0.20 0.20 0.18 0.18 0.20 0.20 0.20 0.20 0.20 0.22 0.22 0.22 0.24 0.24 0.26 0.26 0.26 0.26 0.26 0.24 0.26 0.26 0.24 0.24 0.26 0.26 0.26 0.26 0.28 0.26 0.22 0.20 0.20 0.20 0.20 0.22 0.22 0.22 0.22 0.22 0.22 0.24 0.26 0.26 0.28 0.28 0.30 0.32 0.32 0.32 0.32 0.32 0.32 0.32 0.32 0.32 0.34 0.34 0.36 0.36 0.38 0.38 0.38 0.38
0.20 0.20 0.20 0.20 0.20 0.20 0.20 0.20 0.20 0.20 0.20 0.20 0.20 0.20 0.20 0.20 0.20 0.20 0.20 0.20 0.22 0.20 0.20 0.20 0.20 0.20 0.20 0.20 0.20 0.20 0.20 0.22 0.22 0.22 0.24 0.24 0.26 0.26 0.26 0.24 0.24 0.24 0.24 0.24 0.24 0.22 0.22 0.24 0.24 0.24 0.24 0.24 0.22 0.20 0.20 0.20 0.20 0.20 0.22 0.22 0.22 0.24 0.24 0.24 0.24 0.26 0.28 0.30 0.30 0.32 0.32 0.32 0.32 0.34 0.32 0.32 0.32 0.32 0.32 0.32 0.34 0.34 0.36 0.38 0.38 0.40
0.18 0.18 0.20 0.20 0.20 0.20 0.20 0.20 0.20 0.20 0.20 0.20 0.20 0.20 0.20 0.18 0.18 0.18 0.20 0.20 0.20 0.20 0.20 0.20 0.20 0.20 0.20 0.20 0.20 0.20 0.22 0.22 0.22 0.22 0.24 0.26 0.26 0.26 0.26 0.24 0.24 0.24 0.22 0.22 0.22 0.20 0.20 0.22 0.20 0.20 0.20 0.22 0.22 0.22 0.22 0.20 0.20 0.20 0.20 0.22 0.22 0.24 0.24 0.24 0.26 0.28 0.28 0.30 0.32 0.32 0.32 0.32 0.32 0.32 0.32 0.32 0.32 0.32 0.32 0.32 0.34 0.34 0.36 0.38 0.38 0.38
Wind_Speed
41 42 42 43 43 44 45 45 46 46 47 47 47 48 48 48 48 49 49 49 49 50 50 51 51 51 52 52 52 52 52 52 52 52 52 51 51 51 51 51 51 51 52 53 54 55 55 55 55 54 53 53 52 51 50 50 49 48 48 48 47 47 46 46 46 45 45 44 44 44 43 43 42 42 41 41 40 40 40 40 40 41 41 41 41 41
42 43 43 44 44 45 46 47 47 47 48 48 48 48 49 49 49 50 50 50 50 50 51 52 52 52 52 52 52 52 52 52 52 51 51 51 51 51 51 51 52 52 53 53 54 54 53 53 52 51 51 50 49 48 48 47 46 46 45 45 44 44 43 43 42 42 42 41 41 40 40 39 38 38 38 38 37 37 37 37 38 38 38 38 38 38
43 44 44 45 45 46 47 47 48 48 48 49 49 49 49 49 50 50 50 50 51 51 52 53 53 53 53 53 53 52 52 52 51 51 51 51 51 51 51 51 52 52 52 52 52 52 51 50 49 48 47 46 46 45 45 44 43 43 42 42 41 40 39 39 39 39 38 38 37 37 36 35 35 35 35 35 35 35 35 35 35 34 35 35 35 35
44 45 46 46 46 47 47 48 48 49 49 49 50 50 50 50 50 51 51 51 52 52 53 53 53 53 53 53 53 52 51 51 51 51 51 51 51 51 51 51 51 51 51 50 50 49 48 47 46 45 44 43 42 42 41 41 40 39 39 38 37 36 36 36 36 35 35 34 34 33 32 32 32 32 32 32 32 32 32 32 32 32 32 32 33 33
45 46 46 47 47 48 48 48 49 49 50 50 50 50 51 51 51 51 51 52 52 53 53 53 53 53 52 52 51 51 50 49 49 50 50 50 50 50 50 50 50 49 48 48 47 46 45 43 42 41 40 40 39 39 38 38 37 36 35 34 34 34 33 33 33 32 32 32 31 30 30 30 30 30 30 30 30 30 30 30 30 30 30 31 31 31
46 46 47 47 48 48 49 49 49 50 50 50 50 50 50 50 50 51 51 51 51 52 52 52 52 52 51 51 50 48 47 47 47 48 48 49 49 49 49 48 47 47 46 45 43 42 41 40 39 38 37 37 36 36 35 34 34 33 32 32 32 31 31 31 31 30 30 29 29 29 29 29 29 29 29 29 29 29 29 29 29 29 29 30 30 30
47 47 47 48 48 49 49 49 50 50 50 50 50 50 50 50 50 50 50 50 51 51 51 51 51 50 49 48 47 46 45 45 45 46 47 47 47 47 46 45 44 43 42 41 40 38 37 36 36 35 35 34 33 33 32 32 31 31 31 30 30 30 30 29 29 29 28 28 28 28 28 28 28 28 28 28 28 28 28 28 28 28 29 29 29 30
48 48 48 48 49 49 50 50 49 49 50 50 50 51 51 51 50 50 50 50 51 51 50 50 50 49 48 46 45 44 44 44 44 44 44 44 44 44 43 42 41 39 38 37 36 35 34 34 33 33 33 32 31 31 30 30 29 29 29 29 29 28 28 28 28 28 27 27 27 27 27 27 27 27 27 27 27 27 27 27 28 28 28 29 29 29
48 48 49 49 49 49 50 50 50 50 50 50 51 51 52 52 52 52 51 51 51 50 50 49 49 48 47 45 44 43 42 42 41 41 41 41 40 40 39 38 37 36 35 34 34 33 32 32 31 31 31 30 30 30 29 29 28 28 28 27 27 27 27 27 27 26 26 26 26 26 26 26 26 26 26 26 26 26 27 27 27 28 28 28 28 28
48 48 49 49 49 49 49 50 51 51 51 52 52 52 52 52 52 53 52 51 50 49 48 47 46 45 44 42 41 40 39 39 38 38 38 38 37 37 36 35 34 34 33 33 32 32 31 31 30 30 29 29 29 29 29 28 28 27 27 26 26 26 26 26 26 26 26 25 25 25 25 25 25 25 26 26 26 26 26 27 27 27 28 28 28 28
49 49 49 50 50 50 50 51 52 52 52 52 52 52 51 50 50 50 49 49 47 46 44 42 41 40 39 38 37 36 36 36 36 36 36 35 35 34 34 33 33 33 32 32 31 31 31 30 30 29 28 28 28 29 29 28 27 26 26 25 25 25 25 25 25 25 25 25 25 25 25 25 25 25 25 25 26 26 26 26 27 27 27 27 27 27
49 49 50 50 51 51 51 51 52 52 51 50 50 49 49 48 46 45 44 44 42 41 39 38 37 36 35 34 34 34 34 34 34 34 34 33 33 32 32 33 33 32 32 31 30 30 31 30 30 29 28 28 28 28 28 28 27 26 25 24 24 24 25 25 25 25 25 25 25 25 25 25 25 25 25 26 26 26 26 26 27 27 27 27 27 26
48 49 49 49 50 50 50 50 50 49 49 47 46 46 45 45 43 41 40 39 38 37 36 35 35 34 33 33 33 33 33 33 33 33 32 32 32 32 32 33 33 33 32 30 30 30 30 29 29 28 28 28 28 28 28 28 27 25 25 24 24 25 25 25 26 26 25 25 25 25 25 25 25 26 26 26 26 26 26 26 27 27 27 27 26 26
48 48 48 48 49 49 49 48 48 47 46 45 44 43 42 42 40 39 37 36 36 35 35 34 34 34 33 33 33 33 33 34 34 33 33 33 33 33 34 34 34 33 32 30 29 29 29 29 29 28 28 28 28 28 28 27 26 25 25 25 25 25 26 26 26 26 26 26 26 26 26 26 26 26 26 26 26 26 26 26 26 27 26 26 26 25
48 48 48 48 48 48 47 47 46 45 44 43 42 41 40 39 38 36 35 35 35 35 35 35 35 34 34 33 34 34 34 34 34 33 33 33 34 34 34 34 33 33 32 30 30 29 30 30 30 29 29 28 28 28 28 27 27 26 26 26 26 26 27 27 27 26 26 26 26 26 26 26 26 26 26 26 26 26 26 26 26 26 26 25 25 24
48 48 47 47 47 47 46 45 44 43 43 42 41 39 38 36 35 35 34 34 34 34 34 34 35 34 34 33 33 33 33 32 32 32 32 32 32 32 32 32 32 31 31 30 29 29 29 30 30 30 30 29 29 29 28 28 27 27 27 27 27 27 27 27 26 26 26 26 26 26 26 26 26 26 26 26 26 25 25 25 25 25 25 24 23 23
47 47 47 47 46 46 45 44 43 42 41 39 38 36 35 34 34 33 33 33 34 34 34 33 33 33 33 33 32 31 31 31 31 31 31 30 30 30 30 30 30 30 29 28 28 28 29 29 30 31 31 31 30 29 28 28 27 27 27 27 27 27 27 26 26 26 26 26 26 26 26 26 26 25 25 25 25 25 25 25 24 24 24 23 22 22
47 46 46 45 45 44 43 42 40 39 38 36 35 34 33 33 32 32 33 33 33 33 33 33 32 31 31 31 31 30 31 30 30 30 29 29 28 28 28 28 28 28 27 27 27 27 28 29 30 31 31 31 29 28 27 27 27 27 27 26 26 26 26 26 25 25 25 25 25 25 25 25 25 25 25 24 24 24 24 24 23 23 23 22 21 21
46 45 44 43 43 42 40 38 37 35 34 33 32 32 32 31 31 32 32 32 32 32 32 31 31 31 30 30 30 30 30 29 28 28 27 27 27 27 27 27 26 26 26 25 26 27 28 29 30 30 30 28 27 26 26 26 26 26 26 26 25 25 25 25 25 25 25 25 25 24 24 24 24 24 24 23 23 23 23 23 22 22 21 21 20 19
45 44 42 41 39 38 37 35 33 31 31 30 30 30 30 31 31 31 31 31 31 30 30 30 29 29 29 29 29 28 28 27 27 27 26 26 26 26 26 25 25 25 25 25 26 27 28 28 28 28 27 26 25 25 25 26 26 26 26 25 25 24 24 24 24 24 24 24 24 23 23 23 23 23 22 22 22 22 22 21 21 21 20 19 19 18
42 41 40 38 36 34 33 31 30 29 29 29 29 30 30 30 30 30 30 30 30 29 29 28 28 28 28 28 27 27 26 26 26 26 26 25 25 25 25 26 26 26 26 26 27 28 28 28 27 26 25 24 24 24 25 26 26 26 25 25 24 24 23 23 23 23 23 23 22 22 22 22 21 21 21 21 20 20 20 20 20 20 19 18 18 18
39 38 37 35 33 31 30 29 29 29 28 28 29 29 29 30 30 29 29 29 28 28 28 27 27 27 27 26 25 25 26 26 26 26 26 25 25 25 26 26 26 27 27 27 28 28 28 27 25 25 24 24 23 23 24 25 25 25 24 23 22 22 22 22 22 22 22 21 21 21 20 20 20 19 19 19 19 19 19 19 19 18 18 17 17 17
36 35 34 32 30 29 28 28 28 28 28 28 28 28 28 29 28 28 28 28 28 27 27 26 26 25 25 25 24 25 26 26 26 26 26 25 25 26 26 26 26 26 26 27 27 27 26 25 24 23 23 23 23 23 23 23 23 22 22 21 21 21 21 20 20 20 20 20 19 19 19 18 18 18 18 18 18 18 18 18 18 17 17 16 17 17
34 33 31 29 28 27 27 27 27 27 27 27 28 28 28 27 27 27 27 27 26 26 26 26 25 25 24 24 24 25 26 26 27 26 25 25 25 26 26 26 26 26 26 26 25 25 24 23 22 22 22 22 22 21 21 21 20 20 19 19 19 19 19 18 18 18 18 18 17 17 17 17 16 16 17 17 17 17 17 17 16 16 16 16 16 16
32 30 29 27 27 26 26 26 27 27 27 28 28 28 28 27 27 26 26 26 26 26 26 25 25 25 25 24 24 24 25 26 26 26 25 25 25 26 26 26 26 25 25 25 24 24 23 21 21 20 20 20 20 19 19 19 19 18 18 17 17 17 17 16 16 16 16 16 16 16 15 15 15 16 16 16 16 16 16 15 15 15 15 15 15 15
30 28 27 26 26 26 26 26 27 27 28 28 27 27 27 27 26 26 26 26 26 26 26 25 25 25 25 24 24 24 24 25 26 26 26 26 26 25 25 25 25 25 24 24 23 22 21 20 19 19 18 18 18 18 18 17 17 17 16 16 15 15 15 15 15 15 15 15 15 15 14 15 15 15 15 15 15 15 15 14 14 14 14 14 14 15
28 27 26 25 25 26 26 26 27 27 28 28 27 27 27 27 26 26 26 26 27 26 26 25 25 25 25 24 24 24 24 25 26 26 26 26 25 25 25 25 25 24 24 23 22 21 20 19 18 17 17 17 16 16 16 16 16 15 15 14 14 14 14 14 14 14 14 14 14 14 14 14 14 14 14 14 14 14 14 13 13 14 14 14 14 14
26 26 25 25 25 26 26 27 27 27 27 27 27 27 27 27 26 26 27 27 26 26 25 25 25 24 24 24 24 24 24 25 26 26 26 26 25 24 24 24 24 23 23 22 21 20 19 18 17 17 16 16 16 15 15 15 15 14 14 14 13 13 13 13 13 14 13 13 13 13 14 14 14 14 13 13 13 13 13 13 13 13 13 14 14 14
25 25 25 25 25 26 26 27 27 27 27 27 27 27 27 26 26 26 26 26 26 26 25 25 24 24 24 24 24 24 23 24 25 26 26 25 24 24 24 23 23 22 22 21 21 19 18 17 16 16 16 16 15 15 15 15 14 14 14 14 13 13 13 13 13 13 13 13 13 13 13 13 13 13 12 12 12 13 13 13 13 13 13 13 14 14
25 24 24 25 25 26 26 26 26 27 27 27 27 27 27 26 26 26 26 26 25 25 25 25 24 24 24 24 24 23 23 24 25 26 26 25 24 24 23 23 22 22 21 20 20 18 17 17 16 16 16 15 15 14 14 14 14 14 14 14 13 13 13 13 13 13 12 12 12 12 12 12 12 12 12 12 13 13 13 13 14 14 13 13 13 13
24 24 24 25 25 26 26 26 26 26 26 26 27 27 27 27 26 26 25 25 25 25 25 24 24 24 24 24 23 23 22 24 25 25 25 24 23 23 23 22 22 21 20 19 18 17 17 17 17 16 16 15 15 14 14 14 14 14 14 13 13 13 13 13 13 12 12 12 12 11 11 12 12 12 12 13 13 13 13 14 14 14 13 13 13 13
24 24 24 24 25 26 26 26 26 26 26 26 26 27 27 27 26 26 25 25 25 24 24 24 24 24 24 23 23 22 22 23 24 25 24 23 23 22 22 21 21 20 20 19 18 17 16 16 17 17 16 15 15 15 15 15 15 14 14 14 13 13 13 13 13 12 12 12 11 11 12 12 12 13 13 13 14 14 14 14 14 14 13 13 12 12
24 24 24 24 25 25 25 25 26 26 26 26 26 27 27 27 26 26 26 25 25 24 24 24 24 24 23 23 23 22 22 23 23 24 24 23 22 22 21 21 21 20 20 19 18 17 16 16 17 17 16 16 15 15 15 15 15 15 14 14 13 13 13 13 13 12 12 12 12 12 12 13 13 13 14 14 14 14 14 14 13 13 13 12 12 12
24 24 24 25 25 25 25 25 25 25 26 26 26 26 27 26 26 26 26 26 25 25 24 24 24 24 23 23 22 22 22 22 23 23 23 22 21 21 21 21 20 20 20 19 19 18 17 17 16 16 16 16 15 15 15 15 15 15 15 14 14 13 13 13 13 12 12 12 12 12 13 13 14 14 14 14 14 14 13 13 13 13 12 12 12 11
24 24 24 24 25 25 25 25 25 25 25 26 26 26 26 26 26 26 26 26 26 25 25 24 23 23 23 23 22 22 22 22 22 22 22 21 21 20 20 20 20 20 19 19 18 18 17 17 16 16 16 15 15 15 15 15 15 15 15 14 14 14 13 13 13 13 13 13 13 13 13 14 14 14 14 14 13 13 13 13 12 12 12 12 11 11
24 24 24 24 24 24 24 24 25 25 25 25 26 26 26 26 26 26 26 26 26 26 25 24 23 23 22 22 22 22 22 21 21 22 21 21 20 20 19 19 19 19 19 18 18 17 17 16 16 16 15 15 15 15 15 15 14 14 15 14 14 14 14 14 14 13 13 13 13 13 14 14 14 14 13 13 13 13 13 12 12 12 11 11 11 11
23 24 24 24 24 24 24 24 24 25 25 25 25 26 26 26 26 26 26 26 26 26 25 25 24 23 22 22 21 21 21 21 21 21 21 20 20 19 19 18 18 18 18 17 17 17 16 16 16 15 15 15 15 15 15 15 15 15 15 14 14 14 14 14 14 14 14 14 14 14 14 14 14 13 13 13 13 13 13 12 12 12 12 12 12 12
23 24 24 24 24 24 24 24 24 24 25 25 25 25 26 26 26 27 27 26 26 26 25 25 24 23 22 21 21 21 20 20 20 20 20 20 20 19 18 18 18 18 17 17 16 16 16 15 15 15 15 15 15 15 15 15 15 15 15 15 14 14 13 14 14 14 14 14 14 14 14 14 14 13 13 13 13 12 12 12 12 12 13 13 12 12
23 23 24 24 24 24 24 24 24 24 24 24 25 26 26 26 27 27 27 26 26 26 25 25 23 22 22 21 20 20 20 20 20 20 20 20 20 19 18 18 18 17 17 16 16 16 15 15 15 14 14 15 15 16 16 16 15 15 15 15 14 14 14 14 14 14 14 14 14 14 14 14 13 13 13 12 12 12 12 12 12 12 12 12 12 12
23 23 23 23 23 23 23 23 23 24 24 25 25 26 26 27 27 27 27 26 26 26 25 24 23 22 21 20 20 19 19 19 19 20 20 20 20 19 19 18 17 17 17 16 16 16 15 15 15 14 14 15 15 15 15 15 15 15 15 15 14 14 14 14 14 14 14 14 14 14 14 13 13 13 13 13 13 12 12 12 12 12 12 12 11 11
23 23 23 23 23 23 23 23 23 24 24 25 25 26 26 26 26 26 26 26 26 25 25 24 23 21 20 19 19 19 19 19 19 20 20 20 20 19 19 18 17 17 16 16 16 15 15 15 15 15 15 14 14 15 15 15 15 15 15 15 15 14 14 14 14 14 14 14 14 14 14 13 13 13 13 13 13 13 13 12 12 12 12 12 11 12
23 23 23 23 23 23 22 23 23 24 24 24 24 25 26 26 26 26 26 26 25 24 24 23 22 20 19 18 18 18 19 19 19 20 20 20 20 19 19 18 17 17 16 16 16 15 15 15 15 15 15 14 14 14 14 14 15 15 15 15 15 14 14 14 14 14 14 14 14 14 14 14 14 14 14 13 13 13 13 13 12 12 12 12 12 12
23 23 23 23 23 22 23 23 23 23 24 24 24 25 25 26 26 26 26 25 25 24 23 22 21 20 19 18 17 17 18 18 19 19 20 20 20 20 19 19 18 17 17 16 16 15 15 15 15 15 14 14 14 14 14 14 15 15 15 15 15 15 14 14 14 14 14 14 14 14 14 14 14 14 14 13 13 13 13 13 13 13 13 13 13 13
23 23 23 23 23 23 23 23 23 23 23 24 24 25 25 25 26 26 25 25 24 24 23 21 20 19 19 18 17 17 17 17 18 19 19 20 20 20 20 19 19 18 17 16 16 15 15 15 15 14 14 14 14 14 14 14 15 15 16 16 16 15 14 14 14 14 14 14 14 14 15 15 15 14 14 13 13 13 13 13 13 13 13 14 14 14
23 23 23 23 23 23 23 23 23 23 23 24 24 24 25 25 25 25 25 24 24 23 22 21 20 20 19 18 18 17 17 17 17 18 19 20 20 20 20 20 19 18 17 16 16 15 15 15 14 14 14 14 14 14 14 14 15 15 16 16 15 15 14 14 14 14 14 14 14 15 15 15 15 14 14 13 13 13 13 13 14 14 14 14 15 15
23 23 23 23 23 23 23 23 23 23 23 23 24 24 25 25 25 25 25 24 24 23 22 21 20 20 19 19 18 17 17 17 17 17 18 19 19 20 20 20 20 19 18 17 16 15 15 14 14 14 14 14 14 14 14 15 15 15 16 16 15 15 14 14 14 14 14 14 14 15 15 15 14 14 14 14 14 14 14 14 14 15 15 15 15 15
23 23 23 23 23 23 23 23 23 23 23 23 23 24 24 24 24 24 24 24 23 22 21 21 20 20 19 18 18 17 17 17 17 17 17 18 18 19 19 20 20 20 19 18 17 15 15 14 14 14 14 13 13 14 14 15 15 15 15 15 15 15 14 14 14 14 14 14 14 14 15 15 14 14 14 14 14 14 14 15 15 15 15 15 16 16
23 23 23 23 23 23 23 23 23 23 23 23 23 23 24 24 24 24 24 24 23 22 21 21 20 20 19 18 17 17 17 17 17 17 17 18 18 18 18 19 19 20 20 19 18 16 15 14 14 13 13 13 13 14 15 15 15 15 15 15 15 14 14 14 14 14 14 14 14 14 14 14 14 14 14 14 14 14 15 15 15 15 15 16 17 17
22 23 23 23 23 23 23 23 23 23 23 23 23 23 23 24 24 24 23 23 22 22 21 20 20 19 19 18 17 17 17 17 17 17 17 17 17 18 18 18 19 19 19 18 18 17 16 15 14 13 13 13 13 14 15 15 15 15 15 15 15 14 14 14 14 14 14 14 14 14 14 14 14 14 14 14 14 14 14 15 15 15 16 17 18 19
22 22 23 23 23 23 23 23 23 23 23 23 23 23 23 23 23 23 23 23 22 21 20 20 20 19 18 18 17 17 17 17 17 17 17 17 17 17 18 18 18 19 18 18 18 17 16 15 14 13 13 14 14 14 15 15 15 15 15 15 14 14 14 14 14 14 14 14 14 14 14 14 14 14 14 14 14 14 14 15 15 16 17 18 20 21
22 22 22 22 22 22 22 22 22 22 23 23 23 23 23 23 23 23 23 22 21 21 20 20 19 18 18 17 17 17 17 17 17 17 17 17 17 17 18 18 18 19 19 18 18 18 17 16 15 14 14 14 15 15 14 15 15 15 15 14 14 14 14 14 14 14 14 14 13 14 14 14 14 14 14 14 14 14 15 15 16 17 18 20 21 22
Wind_Direction
308 308 308 307 307 306 305 304 304 303 303 302 302 301 300 299 298 297 297 297 297 297 297 297 297 296 296 296 296 295 295 294 294 294 294 294 294 294 293 293 292 292 292 292 292 292 293 293 293 293 293 293 293 292 292 291 291 290 290 290 289 289 289 289 289 289 289 289 289 289 289 289 288 288 288 288 287 287 287 287 287 287 286 287 287 287
309 308 308 308 307 306 305 305 304 304 303 303 302 301 300 300 299 298 298 297 297 297 297 297 297 297 296 296 295 295 294 294 294 294 294 294 294 294 294 293 293 293 294 294 294 294 294 294 294 294 294 294 294 293 293 292 292 291 291 291 290 290 290 290 290 290 290 290 290 290 289 289 289 289 289 289 288 288 288 288 288 288 288 288 288 288
309 309 308 308 307 306 306 305 305 304 303 303 303 302 301 301 300 300 299 298 298 298 298 298 297 297 296 296 295 295 295 295 295 295 295 295 295 295 295 295 295 295 295 295 295 296 296 296 295 295 295 295 295 294 294 293 292 292 292 291 291 291 291 290 291 291 291 291 291 291 290 290 290 290 290 290 290 290 290 289 289 289 289 289 289 289
309 309 308 308 308 307 306 306 305 305 304 303 303 303 302 302 301 300 300 299 299 299 298 298 298 297 297 297 297 297 297 297 297 297 297 297 297 297 297 297 297 297 297 297 297 297 297 297 296 296 296 295 295 295 294 294 293 293 292 292 292 291 291 291 292 292 292 292 292 292 292 291 291 291 291 291 292 291 291 291 291 291 291 290 290 290
309 309 309 309 308 308 307 307 306 306 305 304 304 303 303 302 301 301 300 300 299 299 299 299 299 299 298 299 299 299 298 298 297 297 297 297 298 298 299 299 299 299 299 299 298 298 298 297 297 297 296 296 296 295 295 294 294 294 293 293 292 292 292 293 293 294 294 294 293 293 293 293 293 293 293 293 293 293 292 292 292 292 292 292 292 291
309 309 309 309 308 308 308 308 307 307 306 305 304 304 303 303 302 302 301 301 301 301 301 301 301 300 300 300 300 299 298 297 297 297 297 298 298 299 300 300 300 300 300 300 299 299 298 298 298 298 297 297 296 296 295 295 295 295 294 293 293 293 294 295 295 295 295 294 294 294 294 294 294 294 294 294 294 293 293 293 293 293 293 293 293 293
309 309 309 309 309 309 308 308 308 307 307 307 306 305 305 304 303 303 303 303 302 302 302 302 302 302 302 301 301 300 299 298 297 298 298 299 300 300 301 301 301 301 301 301 300 300 299 299 299 299 298 298 297 297 296 296 296 295 295 295 295 295 296 296 295 295 295 294 294 294 294 294 295 295 294 294 294 294 294 294 294 294 294 294 294 295
310 310 310 310 310 309 309 309 309 308 308 308 308 307 307 306 305 304 304 304 304 303 304 304 303 303 303 302 302 301 300 299 299 299 300 301 302 302 302 303 303 303 303 303 302 301 300 300 300 300 299 299 299 298 298 297 297 296 296 296 297 297 297 296 296 295 295 295 294 294 294 295 295 295 295 294 294 295 295 295 295 295 295 296 296 296
311 311 311 311 311 311 310 310 310 310 309 309 309 308 308 307 306 305 305 304 304 304 304 304 304 304 304 304 303 303 302 302 302 302 303 304 304 305 305 305 306 306 306 305 304 302 301 301 300 300 300 300 300 300 299 299 298 298 298 298 298 298 298 297 297 296 295 295 295 295 295 295 295 295 295 295 296 296 296 296 296 296 297 297 297 297
312 312 312 312 312 311 311 310 310 309 309 309 308 308 307 307 307 306 306 305 305 305 305 305 305 306 306 306 306 306 306 305 305 306 306 306 307 307 307 308 308 308 307 306 305 304 303 302 301 301 301 301 300 300 300 299 299 299 299 299 299 299 299 299 298 297 296 296 296 296 296 296 296 296 297 297 297 297 297 297 297 297 297 298 298 298
312 312 312 312 311 311 310 310 309 309 309 308 308 308 308 308 308 308 308 307 308 308 308 308 308 308 308 308 308 308 309 308 308 308 308 309 309 309 309 309 309 309 309 308 306 305 304 303 302 302 302 302 301 300 300 299 298 298 298 299 299 300 300 300 299 298 298 297 297 297 297 297 297 298 298 298 298 298 298 298 298 298 298 298 298 298
314 313 313 312 312 312 311 311 310 310 310 310 309 309 310 310 310 310 310 310 310 311 312 312 312 311 311 311 311 311 311 310 310 310 310 310 310 310 309 309 309 309 309 308 308 307 305 303 302 302 302 302 302 301 299 298 297 296 296 297 298 300 301 301 300 299 298 298 297 297 297 298 298 298 299 299 299 299 299 299 299 299 299 299 298 298
315 315 314 314 313 313 313 312 312 312 312 312 312 312 312 313 313 313 313 313 314 315 316 315 315 315 315 314 314 313 313 312 311 311 311 310 309 308 307 307 307 308 308 308 307 307 306 305 303 302 302 301 301 300 298 297 296 295 295 296 297 299 300 301 300 299 298 298 297 297 297 298 299 299 299 300 300 299 299 299 299 299 299 299 298 297
317 316 316 315 315 315 314 314 314 314 314 314 315 315 315 315 315 316 316 317 317 318 318 318 317 317 316 316 315 315 314 313 312 311 310 308 307 306 306 306 306 307 307 306 305 305 305 305 305 304 303 301 300 299 297 296 296 295 295 296 298 299 300 300 299 298 298 297 297 297 297 298 299 299 300 300 300 299 299 299 300 300 300 299 298 297
318 317 317 316 316 316 316 316 316 316 316 317 317 317 317 317 318 319 320 320 320 320 320 319 319 318 317 316 316 315 314 314 313 312 311 309 308 307 307 306 306 306 306 304 303 303 303 304 304 303 303 301 299 298 297 297 296 296 297 298 299 299 299 299 298 298 297 297 296 297 297 298 299 299 299 299 299 299 299 300 300 300 300 300 298 297
319 318 318 317 317 317 317 317 318 318 318 318 318 319 320 320 321 321 322 321 321 321 321 321 320 319 318 317 316 317 316 316 316 315 315 314 312 311 310 308 307 306 305 304 302 302 302 302 302 302 301 300 298 298 297 297 298 298 298 299 300 300 299 299 298 298 297 297 296 297 297 298 298 299 299 299 299 299 300 300 300 301 300 300 298 297
320 319 319 318 318 318 318 318 318 318 318 319 320 320 321 322 322 322 322 322 322 322 321 321 321 320 320 319 320 320 320 319 319 318 318 317 316 315 314 311 310 308 307 305 303 302 302 302 301 300 299 298 297 297 298 298 299 299 299 300 300 300 300 299 298 298 297 297 296 297 297 297 298 298 298 299 299 299 300 301 301 301 301 300 299 298
321 320 320 320 319 319 319 318 319 319 320 320 321 322 322 322 322 322 322 322 322 322 322 322 322 321 321 321 322 323 324 322 321 320 320 320 319 319 318 316 314 312 310 308 306 305 304 303 302 300 299 298 297 298 299 299 300 300 300 301 301 300 300 299 299 298 298 297 297 297 297 298 298 298 298 299 299 300 301 301 301 301 301 300 299 298
322 322 322 322 322 321 322 322 322 323 323 324 324 324 324 324 324 323 323 324 324 324 323 323 323 323 322 322 323 325 326 326 324 324 323 322 322 322 322 321 320 318 316 314 312 311 310 308 307 305 303 302 301 301 301 302 302 302 302 302 301 301 301 300 300 300 299 299 299 299 298 298 298 298 299 300 300 301 301 302 302 302 302 301 300 299
324 324 324 325 325 325 326 327 328 328 328 328 328 327 327 326 326 326 326 326 326 325 325 325 325 325 324 324 325 326 328 329 328 327 326 324 324 324 325 325 324 322 320 318 317 316 315 314 312 311 308 305 302 302 303 304 304 304 303 302 301 301 301 302 302 301 301 301 301 300 300 300 300 300 300 301 301 302 302 303 303 303 303 302 300 299
326 327 327 328 329 329 330 330 331 332 331 331 330 329 328 328 328 328 328 328 328 328 327 327 327 327 327 326 326 328 330 331 330 329 327 325 325 325 325 324 323 322 320 319 319 319 318 317 315 313 310 306 304 303 304 304 305 304 303 302 301 302 303 303 303 303 303 303 303 302 302 302 302 302 302 303 303 303 303 304 304 304 303 302 301 300
329 329 330 331 331 332 332 332 333 333 333 333 332 331 331 330 330 330 330 330 330 330 330 329 329 329 329 328 328 330 332 333 332 330 328 327 325 325 325 324 323 321 320 320 320 320 320 319 317 314 312 310 308 307 306 306 305 304 303 303 303 303 304 305 305 305 305 304 304 304 304 305 305 305 304 304 304 305 305 305 305 305 304 303 302 302
332 332 332 333 334 335 335 335 335 336 336 336 335 334 333 333 333 333 333 333 333 333 332 331 331 331 332 332 331 332 334 335 334 333 331 329 328 327 327 327 326 324 323 323 323 323 322 321 320 318 316 315 313 311 310 309 308 306 306 306 306 306 307 307 307 307 307 306 307 307 308 308 308 307 306 306 306 307 307 307 307 306 305 305 304 305
334 334 335 336 337 337 338 338 339 339 339 338 337 337 336 336 336 336 336 336 336 335 335 335 335 335 336 335 335 335 336 338 338 336 335 333 331 331 331 331 330 329 327 327 327 327 326 325 324 323 321 320 318 317 316 314 313 312 311 311 310 310 310 310 310 310 310 310 311 311 311 311 310 309 309 309 309 309 309 309 308 308 307 307 307 308
337 337 338 340 341 341 341 341 341 341 341 340 340 340 340 340 339 339 339 339 338 338 338 338 338 338 338 338 337 336 337 339 340 339 337 335 334 333 334 334 334 333 332 331 331 331 330 330 329 328 327 326 324 323 322 321 319 318 317 316 315 315 315 315 315 315 316 317 316 316 315 314 313 312 312 312 312 312 312 312 311 311 310 310 310 311
340 342 343 344 344 344 344 343 343 343 343 342 342 342 342 342 341 341 341 341 340 340 340 340 340 339 339 339 338 337 337 339 340 340 339 337 336 335 336 336 336 336 335 334 334 335 336 335 335 334 333 332 330 329 328 328 326 325 324 323 322 322 322 322 322 323 323 323 321 320 318 317 316 316 316 316 316 316 316 316 316 315 314 314 314 313
343 344 345 345 345 345 345 344 344 344 345 345 344 344 344 343 343 342 342 342 341 341 341 341 340 339 339 339 338 338 338 339 340 340 339 338 338 338 338 338 338 338 337 337 338 339 341 341 341 340 339 338 337 337 337 336 335 334 334 333 332 331 330 330 330 329 328 326 324 322 321 320 320 320 320 321 321 322 321 321 320 319 318 317 316 316
345 346 346 346 346 346 346 346 346 346 346 346 346 346 346 345 344 344 343 342 342 342 342 341 340 340 339 339 339 338 339 340 341 341 341 341 340 340 340 340 341 340 340 340 340 342 344 345 346 345 345 344 345 345 346 345 345 345 344 343 342 340 338 336 334 333 330 328 327 325 325 325 325 326 327 327 327 327 326 325 324 322 321 320 319 318
346 346 346 346 346 346 347 347 347 347 347 347 347 347 346 346 345 344 343 343 343 342 342 342 341 340 340 339 339 340 341 342 343 343 343 343 343 343 343 343 344 344 343 343 343 345 347 349 350 350 350 350 351 352 352 352 353 352 351 349 346 344 341 339 336 335 333 332 331 331 331 331 332 333 334 334 333 332 330 329 327 325 323 322 321 320
346 346 346 347 347 347 347 348 348 348 349 348 348 347 347 346 345 344 344 343 343 343 342 342 341 341 340 340 340 341 342 344 344 345 346 347 346 346 346 346 347 347 348 347 347 348 349 351 353 354 354 354 355 356 357 356 356 355 353 350 348 345 343 342 341 340 339 339 339 339 340 340 341 341 340 339 337 336 333 332 330 328 326 325 324 324
345 346 346 347 347 348 348 348 348 349 349 349 348 348 347 346 345 345 344 344 343 343 342 342 341 341 341 341 341 342 342 344 345 347 348 349 349 349 349 349 350 350 351 352 351 350 350 352 355 357 357 358 358 359 359 359 357 356 354 352 351 350 349 349 349 349 349 349 349 349 349 349 348 347 345 342 340 337 336 334 333 331 329 329 328 329
346 346 347 347 348 348 349 349 349 349 349 349 349 348 347 347 346 345 345 344 344 343 342 342 341 341 342 342 342 342 342 344 346 348 349 350 350 351 351 351 352 353 354 355 354 353 351 352 354 357 358 359 359 360 360 359 359 358 357 356 357 357 357 357 357 358 358 359 359 358 356 354 351 349 346 344 341 339 337 336 335 334 333 333 334 335
347 347 348 348 349 349 349 349 350 350 350 349 349 348 348 347 347 346 346 345 345 344 344 343 342 342 343 343 343 343 344 345 347 348 349 350 350 351 352 353 354 354 356 356 356 356 354 353 354 356 358 359 360 360 360 0 360 360 360 1 2 3 4 4 5 6 5 4 3 1 358 355 352 350 347 345 343 341 339 338 338 337 337 337 338 340
348 348 349 349 349 349 350 350 350 350 350 350 349 349 348 348 348 347 347 347 347 346 346 345 344 343 344 344 345 345 345 346 347 348 350 350 351 351 352 353 355 356 357 358 358 358 358 357 357 358 359 360 0 1 1 2 2 2 3 4 6 7 9 10 10 9 8 5 3 360 357 355 353 351 348 346 344 343 342 341 340 340 340 341 342 343
348 349 349 349 350 350 350 350 351 351 350 350 350 349 349 349 349 349 349 349 348 348 348 347 346 345 345 345 345 346 346 347 348 349 350 351 351 351 352 353 355 356 358 359 360 0 1 1 1 1 1 1 2 4 5 6 6 6 7 8 9 10 11 11 10 9 6 4 2 360 358 356 354 352 350 348 346 345 344 343 343 343 344 345 346 345
349 350 350 350 350 350 350 351 351 351 351 350 350 350 350 350 350 350 350 350 350 350 350 349 348 347 347 347 347 347 348 349 349 350 352 352 353 353 353 354 355 357 358 360 1 2 4 4 5 5 4 4 5 7 9 10 11 11 10 10 11 11 11 10 8 7 5 3 2 360 359 357 355 354 351 349 348 347 347 346 347 347 348 349 350 349
350 350 350 351 351 350 350 351 351 351 351 351 350 350 351 351 351 351 351 351 351 351 351 350 350 349 349 350 350 351 350 351 352 353 354 354 355 355 355 355 356 357 359 360 1 3 5 6 8 8 8 9 9 9 11 13 13 13 11 11 10 10 10 8 7 5 5 3 2 0 359 358 357 355 353 351 350 350 350 351 351 352 353 353 354 353
350 350 350 351 351 351 350 351 351 351 351 351 351 350 351 351 351 351 352 352 352 352 352 352 351 350 350 351 352 353 353 354 355 356 357 357 357 358 357 357 358 359 1 2 2 4 5 6 8 9 10 10 10 10 10 12 12 11 10 9 9 10 9 8 6 5 5 4 2 0 359 358 357 357 355 354 354 354 355 356 357 357 356 356 356 355
350 350 350 350 350 350 350 350 350 350 350 350 350 350 350 351 351 352 352 352 352 353 353 353 352 351 351 352 354 355 357 358 358 359 359 360 0 1 1 0 1 2 3 5 5 5 5 6 6 7 8 8 8 9 9 10 9 8 8 8 9 10 9 8 7 6 6 4 2 1 360 359 359 359 360 360 0 0 1 1 1 1 1 0 359 357
350 350 350 350 350 350 350 350 350 350 350 350 350 350 350 351 351 351 352 352 353 353 354 354 353 353 353 355 357 358 359 0 1 1 2 2 3 4 5 4 4 4 5 6 7 7 6 5 4 4 4 5 5 6 6 7 7 7 6 7 7 8 9 8 8 7 6 5 3 2 1 1 2 3 4 5 6 6 6 7 7 7 7 6 4 2
350 350 350 350 350 350 349 349 349 349 349 349 349 350 350 351 351 351 352 352 353 354 354 355 355 355 356 358 360 1 2 2 3 3 4 5 6 7 8 7 7 6 6 6 7 7 7 5 3 2 3 3 4 4 4 5 5 5 6 6 6 6 7 8 8 8 7 6 5 4 3 4 5 6 8 9 10 11 12 12 13 13 13 12 10 7
350 350 349 349 349 349 349 349 349 349 349 349 349 350 350 351 351 352 352 353 354 354 355 355 356 357 358 360 1 2 3 3 4 5 6 8 9 10 10 9 9 8 7 6 6 6 6 5 4 3 3 3 3 4 4 4 5 6 7 6 6 6 8 9 10 9 8 7 7 6 6 7 8 10 11 12 14 15 16 17 18 18 18 17 15 13
350 350 349 349 348 348 348 348 348 348 348 348 349 349 350 351 351 352 352 353 354 354 355 356 357 358 359 1 2 2 3 4 5 6 8 10 11 11 11 10 9 8 8 7 6 5 5 5 4 3 3 3 3 4 4 4 5 6 7 7 7 7 8 10 10 9 9 9 8 9 9 10 11 12 14 16 18 20 21 22 22 22 21 19 17 15
350 349 349 349 348 348 348 347 347 347 347 347 348 349 350 350 351 352 352 353 354 354 355 356 357 358 360 1 1 2 2 3 5 7 10 11 11 11 11 10 9 9 8 7 6 4 4 4 4 3 3 3 4 5 5 5 6 6 7 8 8 8 8 8 9 9 10 10 11 11 11 12 12 14 17 21 24 27 28 28 27 25 22 20 18 17
349 349 349 349 348 348 348 347 347 347 347 347 348 348 349 350 351 352 352 353 354 354 355 356 357 359 360 0 1 1 2 3 5 7 10 11 11 10 10 9 9 8 8 7 6 5 4 3 3 3 4 4 5 6 6 6 6 6 7 8 9 9 10 10 10 10 11 11 12 13 13 14 15 18 22 26 30 32 32 30 28 26 23 21 19 17
349 349 349 349 349 349 349 348 348 347 347 348 348 349 350 350 351 352 353 353 354 355 355 356 358 359 359 359 360 1 3 4 6 7 9 10 10 9 8 8 8 8 8 7 7 6 5 5 4 4 4 5 6 7 7 7 7 7 7 8 9 10 11 12 12 12 12 13 14 14 15 16 19 23 26 30 32 34 33 31 29 26 24 22 20 17
349 350 349 349 349 349 349 349 349 349 348 348 349 349 350 351 351 352 353 354 354 355 356 357 358 359 358 359 360 2 3 5 6 7 8 8 8 7 6 6 6 6 7 7 8 8 8 8 7 7 7 6 6 6 7 8 8 8 8 8 9 11 12 13 13 13 13 14 15 16 17 20 24 27 30 32 34 34 34 32 29 27 24 21 19 17
350 350 350 350 350 349 349 350 350 350 349 350 350 350 351 352 353 353 353 354 355 355 357 358 358 359 359 360 1 2 3 5 5 6 6 7 7 6 5 5 5 5 6 7 8 9 9 10 10 10 11 10 8 6 6 6 7 8 8 9 10 11 12 13 13 13 13 15 16 17 20 24 27 30 31 33 34 34 33 31 29 26 23 21 18 16
350 350 350 350 350 350 350 350 350 350 350 351 351 352 352 353 354 354 354 354 355 356 358 358 359 359 360 0 1 3 4 4 4 4 5 5 5 5 5 5 5 6 6 7 8 9 10 11 12 13 14 13 11 8 6 6 6 7 9 10 11 12 12 13 13 14 14 15 16 19 23 28 32 34 34 33 32 31 30 28 26 24 22 19 18 16
350 350 351 351 350 350 350 350 351 351 351 352 352 353 353 354 354 355 355 355 356 357 358 359 360 360 0 1 2 3 3 3 3 3 3 3 3 4 5 6 6 6 7 7 7 8 9 11 13 14 15 15 13 11 9 7 6 7 9 11 12 13 12 12 13 14 15 15 17 20 25 31 35 38 36 34 31 29 27 26 24 22 20 18 17 15
350 351 351 351 351 351 351 351 351 352 352 353 353 354 354 355 355 356 356 356 357 358 359 0 1 1 2 2 3 3 3 3 2 2 2 2 3 3 4 5 6 7 7 7 7 7 7 7 9 11 13 14 14 13 12 9 7 7 9 11 13 13 13 13 13 14 14 15 18 22 27 33 36 38 37 34 30 26 24 22 21 19 18 17 16 14